Back to catalog

STARLINK-34386

AliveCommunicationsVLEO
NORAD 66096·PAYLOAD·🇺🇸 United States

Launched Oct 19, 2025 from Vandenberg Space Force Base

Loading…

Next Passes (next 24 hours)

TLE

FreshSource: CelesTrak SupGP

Epoch: Sep 14, 2026, 15:14 UTC

1 66096C 25236L   26257.63520833  .00032764  00000+0  96815-3 0  2577
2 66096  53.1578 304.8952 0001251  74.8654 226.0786 15.34370420    13

Track STARLINK-34386 in real time with AllMySat

Download on the App Store